User: anonymous   Login
Location: Pacheco
(37.9835°N, 122.0752°W)
Time: 18:21:47
(UTC+00:00)
Language:

Cosmos 1674 - Orbit

View from above orbital plane
View from above orbital plane
View from above satellite
View from above satellite

Ground track
Ground track

The orbit data is extracted from the following two-line orbital elements,

1 15944U 85069A   24172.53033441  .00015392  00000-0  37386-3 0  9990
2 15944  82.4971 196.9214 0013240 159.4284 200.7498 15.40779372127297
Epoch (UTC): 20 June 2024 12:43:40
Eccentricity: 0.0013240
inclination: 82.4971°
perigee height: 435 km
apogee height: 453 km
right ascension of ascending node: 196.9214°
argument of perigee: 159.4284°
revolutions per day: 15.40779372
mean anomaly at epoch: 200.7498°
orbit number at epoch: 12729

The dashed part of the orbit path shows where the satellite is in the earth's shadow,  

DLR